Location: Chillicothe
(39.7950°N, 93.5520°W)
Time: 11:37:38
(UTC-06:00)

Explorer 11/Cluster Stage 4 - Pass Details

Date: 30 October 2019
Orbit: 467 x 1259 km, 28.8° (Epoch: 14 November)

Event Time Altitude Azimuth Distance (km) Brightness Sun altitude
Rises 08:41:21 0° 252° (WSW) 3,064 9.2 10.0°
Reaches altitude 10° 08:44:40 10° 233° (SW) 1,988 8.5 10.5°
Maximum altitude 08:47:33 17° 193° (SSW) 1,482 8.3 11.0°
Drops below altitude 10° 08:50:11 10° 152° (SSE) 1,765 9.5 11.4°
Sets 08:52:53 0° 130° (SE) 2,566 11.1 11.9°
